Погода в Бузулуке

Погода в Бузулуке : погода сейчас, прогноз погоды и архив. Всё, что Вы хотите узнать о погоде в Бузулуке!

Хотите узнать прогноз погоды в Бузулуке? Тогда Вам сюда: Погода в Бузулуке

Поиск расширенной информации на нашем сайте:

Другие новости

Новости СМИ2

Главная страница сайта

Новости сайта

03.07.2017

Напоминаем, что на нашем специализированном сайте Метеоцентр.Азия вы можете получить высокодетализированные автоматические прогнозы погоды по пунктам России, СНГ и мира в авиационном формате (включающие направление и скорость ветра, видимость, явления погоды, количество и форму облачности, нижнюю и верхнюю границу облачности).


Погода в Бузулуке - сегодня

Время (UTC), дата Ветер
(°,м/с) 
Видим.   Явления Облачность Т
(°С)
Тd
(°С)
f(%) Тe
(°С)
Pmin
(гПа)
dP
(гПа)
Po
(мм)
O2
(г/м3)
Тmin Tmax R s Состояние
почвы
21 17.09.17 330 (СЗ) 10 км    ясно 
+7.6 +7.3 98 +9  1022.3  0.5  759  296           
00 18.09.17 тихо ()   10 км    ясно 
+6.5 +6.3 99 +7  1022.8  0.5  760  298           
03 18.09.17 тихо ()   10 км    4/0 верхняя 
[Ci fib]
+5.8 +5.6 99 +6  1023.4  0.6  760  299  +4.5        сухая 
06 18.09.17 140 (ЮВ) 10 км    4/0 верхняя 
[Ci fib]
+17.2 +7.7 54 +19  1023.5  0.5  761  287           
09 18.09.17 200 (Ю) 10 км    4/0 верхняя 
[Ci fib]
+22.2 +6.7 37 +22  1022  -1.3  760  282           
12 18.09.17 200 (Ю) 10 км    4/0 верхняя 
[Ci fib]
+23.8 +6.8 34 +24  1020.5  -1.5  758  280           
18 18.09.17 140 (ЮВ) 10 км    ясно 
+16 +8.9 63 +17  1019.6  0.1  758  287           
21 18.09.17 140 (ЮВ) 10 км    ясно 
+14.2 +7.9 66 +15  1019.3  -0.3  757  289           
00 19.09.17 140 (ЮВ) 10 км    ясно 
+13.9 +7.2 64 +14  1019.2  0.1  757  289           
03 19.09.17 140 (ЮВ) 10 км    8/0 верхняя 
[Ci fib]
+13.9 +6.3 60 +14  1019.2  757  289  +13        сухая 
06 19.09.17 160 (Ю) 10 км    6/0 верхняя 
[Ci fib]
+23.1 +6.2 34 +23  1018.8  0.1  757  280           
09 19.09.17 210 (ЮЗ) 4{10}  10 км    8/0 верхняя 
[Ci fib]
+29.5 +7.9 26 +30  1018.1  -0.5  757  274           
12 19.09.17 240 (ЮЗ) 5-11{13}  10 км    8/0 верхняя 
[Ci fib]
+30.8 +5.9 21 +31  1016.9  -1.2  756  273           
15 19.09.17 220 (ЮЗ) 1{12}  10 км    4/0 верхняя 
[Ci fib]
+24.4 +7.9 35 +24  1016.9  -0.2  756  278    +31.3       
18 19.09.17 150 (ЮВ) 10 км    ясно 
+21 +8.1 43 +21  1017.1  0.1  756  281           
21 19.09.17 190 (Ю) 10 км    ясно 
+20.4 +6.7 41 +20  1017.2  0.1  756  282           
00 20.09.17 120 (ЮВ) 10 км    ясно 
+13.5 +8.1 70 +14  1018  0.6  756  289           
03 20.09.17 тихо ()   10 км    4/3 300 м верхняя 
[Sc|Ci fib]
+11.3 +8.1 81 +11  1018.5  0.4  757  291  +10.5        сухая 
06 20.09.17 340 (С) 10 км    6/0 средняя 
[Ac trans]
+18.9 +9.4 54 +20  1019.4  1.1  758  284           
09 20.09.17 360 (С) 10 км    3/0 средняя 
[Ac trans]
+24.3 +8.7 37 +24  1019.4  0.2  758  279           
12 20.09.17 330 (СЗ) 10 км    1/0 средняя 
[Ac trans]
+25.7 +5.7 28 +26  1019.2  0.1  758  278           
15 20.09.17 340 (С) 10 км    3/0 средняя, верхняя 
[Ac trans|Ci fib]
+18.4 +5 41 +19  1020.2  0.7  758  285    +26.5       
18 20.09.17 310 (СЗ) 10 км    ясно 
+12.8 +7.1 68 +14  1021.3  759  291           
21 20.09.17 290 (З) 10 км    ясно 
+10.1 +7.3 83 +11  1022.3  0.9  759  294           
00 21.09.17 300 (СЗ) 10 км    ясно 
+7.9 +6.7 92 +8  1022.7  0.3  760  296           
Время (UTC), дата Ветер
(°,м/с) 
Видим.   Явления Облачность Т
(°С)
Тd
(°С)
f(%) Тe
(°С)
Pmin
(гПа)
dP
(гПа)
Po
(мм)
O2
(г/м3)
Тmin Tmax R s Состояние
почвы

Для получения пояснительной информации подведите курсор к названию столбца.

ПОГОДА в Бузулуке - архив

Всё, что Вы хотите узнать о погоде в Бузулуке - удобно и подробно!

Выберите нужную дату (начиная с 1 января 2015* года) и нажмите кнопку "Найти".
Будут отображены архивные сводки погоды по пункту Бузулук, начиная с указанной даты.


Отображать данные в формате CSV (для использования в таблицах Excel)


Внимание! Наш архив погоды предназначен исключительно для личного некоммерческого использования в познавательных целях. Если Вам необходимы официальные справки о состоянии погоды (для производственных, юридических, коммерческих и т.п. целей), обращайтесь в органы Росгидромета.

*Примечание: данная дата относится к архиву по метеостанциям СССР (Россия, СНГ, Балтия).
Архив по метеостанциям Зарубежной Европы и Азии (кроме Китая) хранится 10 дней, по другим регионам земного шара (Китай, Африка, Америка, Австралия, Океания) - 1 день.

Бузулук - район местоположения метеостанции


Название, широта, долгота, высота метеостанции:
Бузулук 52.8°ш. 52.2°д. 80 м над ур. моря [Российская Федерация]

Дополнительная информация

В oтличие oт бoльшинства пoгoдных сайтoв мы публикуем пoдрoбную метеoинфoрмацию в детальнoм прoфессиoнальнoм фoрмате.

Характеристики температуры и влажнoсти вoздуха измеряются на высoте 2 м в тени вдали oт зданий и деревьев.
Скoрoсть ветра измеряется на высoте 10 м (на урoвне рoста челoвека скoрoсть ветра ниже в 1.5-2 раза). Если метеoстанция нахoдится в гoрoде или в лесу, тo скoрoсть ветра занижена на 2-4 м/с пo сравнению с oткрытым местoм. Скoрoсть ветра над акватoриями крупных рек и oзёр, а также на вершинах хoлмoв на 2-5 м/с выше, чем в oбычных услoвиях.
Атмoсфернoе давление в разных тoчках местнoсти мoжет значительнo oтличаться oт давления на метеoстанции, в зависимoсти oт услoвий рельефа (при пoдъёме на 10 м давление пoнижается примернo на 1 мм рт.ст.).